Weather History for Fort Leonard Wood, MO

Change the Weather History Date:

Thursday, April 18, 2013

  Actual Average Record
Temperature  
Mean Temperature 56 °F -  
Max Temperature 73 °F 66 °F 91 °F (2006)
Min Temperature 39 °F 49 °F 33 °F (2001)
Degree Days  
Heating Degree Days 9    
Growing Degree Days 6 (Base 50)    
Moisture  
Dew Point 53 °F    
Average Humidity 93    
Maximum Humidity 100    
Minimum Humidity 72    
Precipitation  
Precipitation 1.46 in - - ()
Sea Level Pressure  
Sea Level Pressure 29.68 in    
Wind  
Wind Speed 13 mph (SW)    
Max Wind Speed 23 mph    
Max Gust Speed 37 mph    
Visibility 8 miles    
Events Rain , Thunderstorm    
Averages and records for this station are not official NWS values.
T = Trace of Precipitation, MM = Missing Value Source: NWS Daily Summary

Daily Weather History Graph

Daily Weather History Graph

Search for Another Location

Airport:

Trip Planner

Search our weather history database for the weather conditions in past years. The results will help you decide how hot, cold, wet, or windy it might be!

Date:

Astronomy

Apr. 18, 2013 Rise Set
Actual Time 6:28 AM CDT 7:47 PM CDT
Civil Twilight 6:01 AM CDT 8:14 PM CDT
Nautical Twilight 5:29 AM CDT 8:47 PM CDT
Astronomical Twilight 4:55 AM CDT 9:21 PM CDT
Moon 12:42 PM CDT (4/18) 2:00 AM CDT (4/18)
Length of Visible Light 14h 12m
Length of Day
13h 18m
First Quarter, 52% of the Moon is Illuminated
Apr 18
First Quarter
Apr 25
Full
May 2
Last Quarter
May 9
New
May 17
First Quarter

Hourly Weather History & Observations

Time (CDT) Temp. Windchill Dew Point Humidity Pressure Visibility Wind Dir Wind Speed Gust Speed Precip Events Conditions
12:58 AM 73.0 °F - 66.7 °F 81% 29.64 in 10.0 mi South 23.0 mph 29.9 mph N/A   Clear
1:58 AM 73.0 °F - 66.4 °F 80% 29.62 in 10.0 mi South 18.4 mph 29.9 mph N/A   Scattered Clouds
2:58 AM 72.7 °F - 66.4 °F 81% 29.57 in 10.0 mi South 16.1 mph 28.8 mph N/A   Scattered Clouds
3:58 AM 73.2 °F - 66.0 °F 78% 29.55 in 10.0 mi SSE 17.3 mph 25.3 mph N/A   Overcast
4:15 AM 73.4 °F - 66.2 °F 78% 29.59 in 10.0 mi SSE 13.8 mph 26.5 mph N/A   Light Drizzle
4:25 AM 73.4 °F - 66.2 °F 78% 29.59 in 10.0 mi South 15.0 mph 26.5 mph N/A   Overcast
4:43 AM 73.4 °F - 66.2 °F 78% 29.59 in 10.0 mi South 12.7 mph 24.2 mph N/A Rain , Thunderstorm Light Rain
4:48 AM 73.4 °F - 66.2 °F 78% 29.62 in 10.0 mi SW 11.5 mph 24.2 mph N/A Rain , Thunderstorm Light Rain
4:49 AM 73.4 °F - 66.2 °F 78% 29.64 in 10.0 mi West 12.7 mph 21.9 mph N/A Rain , Thunderstorm Light Rain
4:53 AM 71.6 °F - 64.4 °F 78% 29.65 in 7.0 mi West 20.7 mph 36.8 mph N/A Rain , Thunderstorm Light Thunderstorms and Rain
4:58 AM 68.0 °F - 64.4 °F 88% 29.64 in 1.2 mi WSW 15.0 mph 36.8 mph 0.03 in Rain , Thunderstorm Heavy Thunderstorms and Rain
5:03 AM 64.4 °F - 62.6 °F 94% 29.66 in 0.8 mi Variable 6.9 mph 36.8 mph N/A Rain , Thunderstorm Heavy Thunderstorms and Rain
5:08 AM 62.6 °F - 62.6 °F 100% 29.63 in 1.2 mi Variable 6.9 mph 19.6 mph N/A Rain , Thunderstorm Heavy Thunderstorms and Rain
5:13 AM 62.6 °F - 62.6 °F 100% 29.63 in 1.5 mi Variable 6.9 mph - N/A Rain , Thunderstorm Heavy Thunderstorms and Rain
5:18 AM 62.6 °F - 62.6 °F 100% 29.65 in 2.0 mi SW 9.2 mph - N/A Rain , Thunderstorm Thunderstorms and Rain
5:23 AM 62.6 °F - 62.6 °F 100% 29.64 in 3.0 mi WSW 10.4 mph - N/A Rain , Thunderstorm Light Thunderstorms and Rain
5:29 AM 62.6 °F - 62.6 °F 100% 29.63 in 3.0 mi Variable 6.9 mph 17.3 mph N/A Rain Rain
5:41 AM 62.6 °F - 62.6 °F 100% 29.64 in 10.0 mi Variable 6.9 mph - N/A Rain , Thunderstorm Light Thunderstorms and Rain
5:58 AM 61.9 °F - 61.9 °F 100% 29.62 in 8.0 mi SW 6.9 mph - 0.45 in Rain , Thunderstorm Light Thunderstorms and Rain
6:03 AM 62.6 °F - 62.6 °F 100% 29.64 in 6.0 mi SW 6.9 mph - N/A Rain Rain
6:58 AM 61.2 °F - 61.2 °F 100% 29.61 in 4.0 mi South 5.8 mph - 0.18 in Rain Rain
7:58 AM 61.0 °F - 61.0 °F 100% 29.62 in 4.0 mi SSE 9.2 mph - 0.22 in Rain Rain
8:23 AM 60.8 °F - 60.8 °F 100% 29.65 in 2.5 mi South 5.8 mph - N/A Rain Heavy Rain
8:43 AM 60.8 °F - 60.8 °F 100% 29.63 in 1.8 mi SW 3.5 mph - N/A Rain Heavy Rain
8:58 AM 60.8 °F - 60.8 °F 100% 29.62 in 2.5 mi South 5.8 mph - 0.31 in Rain Rain
9:03 AM 60.8 °F - 60.8 °F 100% 29.63 in 3.0 mi Variable 3.5 mph - N/A Rain Rain
9:08 AM 60.8 °F - 60.8 °F 100% 29.62 in 2.5 mi SW 3.5 mph - N/A Rain Rain
9:23 AM 62.6 °F - 62.6 °F 100% 29.59 in 3.0 mi SE 10.4 mph - N/A Rain Light Rain
9:53 AM 62.6 °F - 62.6 °F 100% 29.59 in 10.0 mi SSE 9.2 mph - N/A   Overcast
9:55 AM 62.6 °F - 62.6 °F 100% 29.59 in 10.0 mi South 6.9 mph - N/A Rain Light Rain
9:58 AM 62.6 °F - 62.6 °F 100% 29.57 in 10.0 mi Variable 5.8 mph - 0.12 in Rain Light Rain
10:40 AM 62.6 °F - 62.6 °F 100% 29.60 in 10.0 mi SSE 15.0 mph - N/A   Overcast
10:45 AM 62.6 °F - 62.6 °F 100% 29.60 in 10.0 mi SE 13.8 mph - N/A   Mostly Cloudy
10:53 AM 62.6 °F - 62.6 °F 100% 29.59 in 10.0 mi SE 15.0 mph - N/A   Light Drizzle
10:58 AM 62.8 °F - 62.8 °F 100% 29.58 in 10.0 mi SE 17.3 mph - 0.02 in   Light Drizzle
11:02 AM 62.6 °F - 62.6 °F 100% 29.60 in 10.0 mi SSE 13.8 mph - N/A   Overcast
11:14 AM 62.6 °F - 62.6 °F 100% 29.61 in 10.0 mi South 5.8 mph - N/A Rain Light Rain
11:34 AM 60.8 °F - 60.8 °F 100% 29.65 in 9.0 mi West 13.8 mph 24.2 mph N/A Rain Light Rain
11:52 AM 53.6 °F - 53.6 °F 100% 29.66 in 10.0 mi West 16.1 mph 26.5 mph N/A   Overcast
11:58 AM 53.6 °F - 53.6 °F 100% 29.65 in 10.0 mi West 11.5 mph 26.5 mph 0.01 in   Overcast
12:05 PM 51.8 °F - 51.8 °F 100% 29.67 in 10.0 mi West 15.0 mph 25.3 mph N/A Rain Light Rain
12:10 PM 51.8 °F - 51.8 °F 100% 29.67 in 9.0 mi WSW 16.1 mph 26.5 mph N/A Rain Light Rain
12:58 PM 46.8 °F - 46.4 °F 99% 29.70 in 10.0 mi WSW 8.1 mph 17.3 mph 0.05 in Rain Light Rain
1:13 PM 46.4 °F 42.4 °F 46.4 °F 100% 29.69 in 9.0 mi SW 8.1 mph 16.1 mph N/A Rain Rain
1:23 PM 46.4 °F 41.5 °F 46.4 °F 100% 29.71 in 10.0 mi WSW 10.4 mph 18.4 mph N/A Rain Light Rain
1:28 PM 46.4 °F 41.1 °F 46.4 °F 100% 29.70 in 10.0 mi WSW 11.5 mph 19.6 mph N/A Rain Light Rain
1:33 PM 46.4 °F 41.5 °F 46.4 °F 100% 29.70 in 10.0 mi SW 10.4 mph 19.6 mph N/A Rain Light Rain
1:58 PM 44.8 °F 38.7 °F 44.6 °F 99% 29.72 in 10.0 mi West 12.7 mph 25.3 mph 0.05 in Rain Light Rain
2:40 PM 42.8 °F 35.8 °F 42.8 °F 100% 29.72 in 10.0 mi West 13.8 mph 19.6 mph N/A   Overcast
2:58 PM 42.8 °F 36.6 °F 42.8 °F 100% 29.73 in 10.0 mi West 11.5 mph 19.6 mph 0.02 in   Overcast
3:23 PM 42.8 °F 37.0 °F 42.8 °F 100% 29.75 in 10.0 mi West 10.4 mph 19.6 mph N/A   Overcast
3:30 PM 42.8 °F 37.0 °F 42.8 °F 100% 29.75 in 10.0 mi West 10.4 mph - N/A   Overcast
3:47 PM 42.8 °F 36.6 °F 42.8 °F 100% 29.75 in 10.0 mi West 11.5 mph - N/A   Overcast
3:49 PM 42.8 °F 36.2 °F 42.8 °F 100% 29.76 in 10.0 mi WSW 12.7 mph - N/A   Light Drizzle
3:55 PM 42.8 °F 37.0 °F 42.8 °F 100% 29.76 in 10.0 mi West 10.4 mph - N/A   Overcast
3:58 PM 42.8 °F 36.2 °F 41.0 °F 93% 29.75 in 10.0 mi West 12.7 mph 19.6 mph 0.00 in   Overcast
4:03 PM 42.8 °F 38.0 °F 41.0 °F 93% 29.74 in 10.0 mi West 8.1 mph 19.6 mph N/A   Overcast
4:08 PM 42.8 °F 36.6 °F 41.0 °F 93% 29.75 in 10.0 mi West 11.5 mph 19.6 mph N/A   Overcast
4:23 PM 42.8 °F 36.2 °F 41.0 °F 93% 29.76 in 10.0 mi West 12.7 mph - N/A   Overcast
4:58 PM 42.8 °F 37.0 °F 39.7 °F 89% 29.78 in 10.0 mi West 10.4 mph 17.3 mph N/A   Overcast
5:58 PM 42.6 °F 35.9 °F 37.6 °F 82% 29.81 in 10.0 mi West 12.7 mph 26.5 mph N/A   Overcast
6:58 PM 41.4 °F 34.7 °F 35.6 °F 80% 29.83 in 10.0 mi West 11.5 mph 18.4 mph N/A   Overcast
7:58 PM 40.6 °F 33.4 °F 34.2 °F 78% 29.84 in 10.0 mi West 12.7 mph 21.9 mph N/A   Overcast
8:58 PM 40.1 °F 33.6 °F 33.4 °F 77% 29.86 in 10.0 mi WNW 10.4 mph 17.3 mph N/A   Overcast
9:03 PM 39.2 °F 31.6 °F 32.0 °F 75% 29.85 in 10.0 mi West 12.7 mph 18.4 mph N/A   Overcast
9:28 PM 39.2 °F 31.6 °F 33.8 °F 81% 29.85 in 10.0 mi West 12.7 mph - N/A   Overcast
9:58 PM 39.7 °F 31.5 °F 33.4 °F 78% 29.87 in 10.0 mi WNW 15.0 mph 23.0 mph N/A   Overcast
10:58 PM 39.0 °F 30.3 °F 30.7 °F 72% 29.88 in 10.0 mi WNW 16.1 mph 21.9 mph N/A   Overcast
11:53 PM 39.2 °F 32.0 °F 32.0 °F 75% 29.86 in 10.0 mi WNW 11.5 mph - N/A   Overcast
11:58 PM 39.0 °F 32.3 °F 30.6 °F 72% 29.88 in 10.0 mi West 10.4 mph - N/A   Overcast